Weather History for Wenatchee, WA

Change the Weather History Date:

Sunday, October 27, 2013

  Actual Average Record
Temperature  
Mean Temperature 48 °F 46 °F  
Max Temperature 55 °F 54 °F 71 °F (2003)
Min Temperature 40 °F 37 °F 26 °F (1970)
Degree Days  
Heating Degree Days 17 19  
Month to date heating degree days 366 357  
Since 1 July heating degree days 462 469  
Cooling Degree Days 0 0  
Month to date cooling degree days 0 0  
Year to date cooling degree days 1028 790  
Moisture  
Dew Point 40 °F    
Average Humidity 68    
Maximum Humidity 89    
Minimum Humidity 46    
Precipitation  
Precipitation 0.15 in 0.02 in 0.35 in (1999)
Month to date precipitation 0.15 0.34  
Year to date precipitation 6.84 5.40  
Sea Level Pressure  
Sea Level Pressure 29.88 in    
Wind  
Wind Speed 12 mph (North)    
Max Wind Speed 33 mph    
Max Gust Speed 52 mph    
Visibility 9 miles    
Events Rain    
T = Trace of Precipitation, MM = Missing Value Source: NWS Daily Summary

Daily Weather History Graph

Daily Weather History Graph

Search for Another Location

Airport:

Trip Planner

Search our weather history database for the weather conditions in past years. The results will help you decide how hot, cold, wet, or windy it might be!

Date:

Astronomy

Oct. 27, 2013 Rise Set
Actual Time 7:37 AM PDT 5:51 PM PDT
Civil Twilight 7:05 AM PDT 6:22 PM PDT
Nautical Twilight 6:29 AM PDT 6:58 PM PDT
Astronomical Twilight 5:54 AM PDT 7:34 PM PDT
Moon 12:12 AM PDT (10/27) 2:27 PM PDT (10/27)
Length of Visible Light 11h 17m
Length of Day
10h 13m
Last Quarter, 42% of the Moon is Illuminated
Oct 27
Last Quarter
Nov 3
New
Nov 9
First Quarter
Nov 17
Full
Nov 25
Last Quarter

Hourly Weather History & Observations

Time (PDT) Temp. Windchill Dew Point Humidity Pressure Visibility Wind Dir Wind Speed Gust Speed Precip Events Conditions
12:55 AM 46.0 °F - 41.0 °F 83% 30.01 in 10.0 mi Calm Calm - N/A   Clear
1:55 AM 46.0 °F 43.9 °F 39.9 °F 79% 29.99 in 10.0 mi NNE 4.6 mph - N/A   Clear
2:55 AM 45.0 °F - 39.9 °F 82% 29.94 in 10.0 mi Calm Calm - N/A   Clear
3:55 AM 46.0 °F 44.8 °F 41.0 °F 83% 29.87 in 10.0 mi East 3.5 mph - N/A   Mostly Cloudy
4:55 AM 42.1 °F 38.4 °F 39.0 °F 89% 29.83 in 10.0 mi NE 5.8 mph - N/A   Clear
5:55 AM 43.0 °F 39.5 °F 37.9 °F 82% 29.83 in 10.0 mi WSW 5.8 mph - N/A   Clear
6:55 AM 42.1 °F 39.2 °F 39.9 °F 92% 29.84 in 9.0 mi NW 4.6 mph - N/A   Overcast
7:55 AM 42.1 °F 34.9 °F 39.9 °F 92% 29.80 in 8.0 mi SSW 13.8 mph 26.5 mph N/A   Scattered Clouds
8:55 AM 44.1 °F 39.0 °F 41.0 °F 89% 29.83 in 8.0 mi South 9.2 mph - N/A   Overcast
9:55 AM 46.0 °F 44.8 °F 42.1 °F 86% 29.85 in 9.0 mi NNE 3.5 mph - 0.00 in Rain Light Rain
10:55 AM 48.0 °F - 43.0 °F 83% 29.84 in 4.0 mi WNW 6.9 mph - 0.10 in   Haze
11:55 AM 48.0 °F - 44.1 °F 86% 29.83 in 9.0 mi WNW 8.1 mph - 0.02 in   Overcast
12:55 PM 48.0 °F - 44.1 °F 86% 29.83 in 9.0 mi WNW 6.9 mph - 0.02 in   Overcast
1:55 PM 48.0 °F - 45.0 °F 89% 29.84 in 8.0 mi West 4.6 mph - 0.01 in   Overcast
2:55 PM 50.0 °F - 45.0 °F 83% 29.83 in 10.0 mi WNW 6.9 mph - N/A   Overcast
3:55 PM 51.1 °F - 44.1 °F 77% 29.85 in 10.0 mi SSE 3.5 mph - N/A   Overcast
4:55 PM 54.0 °F - 39.9 °F 59% 29.87 in 10.0 mi Variable 6.9 mph - 0.00 in   Overcast
5:55 PM 54.0 °F - 39.0 °F 57% 29.88 in 10.0 mi NNE 12.7 mph 19.6 mph N/A   Overcast
6:55 PM 53.1 °F - 37.9 °F 57% 29.90 in 10.0 mi NNE 24.2 mph 36.8 mph N/A   Overcast
7:55 PM 52.0 °F - 39.0 °F 61% 29.90 in 10.0 mi NNE 28.8 mph 42.6 mph 0.00 in Rain Light Rain
8:55 PM 53.1 °F - 37.9 °F 57% 29.91 in 10.0 mi NNE 31.1 mph 41.4 mph 0.00 in Rain Light Rain
9:55 PM 54.0 °F - 36.0 °F 51% 29.91 in 10.0 mi North 16.1 mph 27.6 mph 0.00 in   Overcast
10:55 PM 54.0 °F - 35.1 °F 49% 29.93 in 10.0 mi NE 28.8 mph 47.2 mph 0.00 in   Overcast
11:55 PM 54.0 °F - 33.1 °F 45% 29.95 in 10.0 mi NNE 31.1 mph 40.3 mph N/A   Overcast